Tracking 19490 objects as of 23-Jan-2019
HD Live streaming from Space Station
objects crossing your sky now

FLOCK 2K 02

Track FLOCK 2K 02 now!
10-day predictions
FLOCK 2K 02 is classified as:


NORAD ID: 42853
Int'l Code: 2017-042AE
Perigee: 456.7 km
Apogee: 473.7 km
Inclination: 97.0 °
Period: 93.8 minutes
Semi major axis: 6836 km
RCS: Unknown
Launch date: July 14, 2017
Source: United States (US)
Launch site: TYURATAM MISSILE AND SPACE COMPLEX (TTMTR)
aabbcc
Your satellite tracking list
Your tracking list is empty




NASA's NSSDC Master Catalog

Two Line Element Set (TLE):
1 42853U 17042AE  19022.92888823 +.00003081 +00000-0 +89950-4 0  9995
2 42853 096.9593 271.8094 0012406 047.7569 312.4727 15.35952907085293
Source of the keplerian elements: AFSPC